Regional Weather Roundup
Issued by NWS Charleston, WV

Home | Current Version | Previous Version | Text Only | Print | Product List | Glossary Off
Versions: 1 2 3 4 5 6 7 8 9 10 11 12 13 14 15 16 17 18 19 20 21 22 23 24 25 26 27 28 29 30 31 32 33 34 35 36 37 38 39 40 41 42 43 44 45 46 47 48 49 50

000
ASUS41 KRLX 032110
RWRRLX
West Virginia Regional Weather Roundup
National Weather Service Charleston WV
500 PM EDT THU SEP 03 2015

Note: "fair" indicates few or no clouds below 12,000 feet with no
significant weather and/or obstructions to visibility.

WVZ003-032200-
Northern Panhandle of West Virginia

CITY           SKY/WX    TMP DP  RH WIND       PRES   REMARKS
WHEELING       PTSUNNY   83  67  58 SW8       29.95F
$$

WVZ009-032200-
Northwest West Virginia

CITY           SKY/WX    TMP DP  RH WIND       PRES   REMARKS
PARKERSBURG    PTSUNNY   75  64  68 VRB5      30.00S THUNDER
$$

WVZ006-032200-
Western West Virginia

CITY           SKY/WX    TMP DP  RH WIND       PRES   REMARKS
HUNTINGTON     MOSUNNY   89  63  41 N10       29.95F
$$

WVZ015-032200-
West Central West Virginia

CITY           SKY/WX    TMP DP  RH WIND       PRES   REMARKS
CHARLESTON     MOSUNNY   89  65  44 VRB7      29.96F
$$

WVZ022-031-032200-
North Central West Virginia

CITY           SKY/WX    TMP DP  RH WIND       PRES   REMARKS
CLARKSBURG     MOSUNNY   86  68  54 W6        29.96F
MORGANTOWN     PTSUNNY   79  67  66 S3        29.96F
$$

WVZ025-035-042-045-032200-
Southern West Virginia

CITY           SKY/WX    TMP DP  RH WIND       PRES   REMARKS
BECKLEY        MOSUNNY   81  64  56 NW7       30.04F
LOGAN            N/A     81  68  65 NW6G12    30.00S
BLUEFIELD      MOSUNNY   83  62  49 NW7       30.07F THUNDER
LEWISBURG      PTSUNNY   79  66  64 SE7       30.02S
$$

WVZ047-032200-
Northern Mountains of West Virginia

CITY           SKY/WX    TMP DP  RH WIND       PRES   REMARKS
ELKINS         PTSUNNY   83  65  54 W10       30.00F
$$

WVZ052-032200-
Eastern Panhandle of West Virginia

CITY           SKY/WX    TMP DP  RH WIND       PRES   REMARKS
MARTINSBURG    PTSUNNY   90  63  40 NW8       29.88F
PETERSBURG     MOSUNNY   83  71  66 CALM      29.91F
$$



USA.gov is the U.S. government's official web portal to all federal, state and local government web resources and services.